Location: Unspecified
(52.2500°N, 0.0000°E)
Time: 05:01:15
(UTC+00:00)

NOAA 16 DEB - Visible Passes

Search period start: 04 April 2026 00:00
Search period end: 14 April 2026 00:00
Orbit: 798 x 814 km, 98.6° (Epoch: 28 March)

Date Brightness Start Highest point End Pass type
(mag) Time Alt. Az. Time Alt. Az. Time Alt. Az.
4 Apr ? 19:03:37 10° SSE 19:08:46 60° ENE 19:13:58 10° N visible
4 Apr ? 20:44:43 10° SW 20:48:59 25° W 20:53:17 10° NW visible
5 Apr ? 20:19:00 10° SSW 20:23:51 38° W 20:28:46 10° NNW visible
6 Apr ? 19:53:39 10° S 19:58:49 59° WSW 20:04:02 10° NNW visible
7 Apr ? 19:28:36 10° SSE 19:33:52 89° WSW 19:39:10 10° NNW visible
7 Apr ? 21:11:16 10° SW 21:14:26 16° W 21:17:38 10° NW visible
8 Apr ? 20:44:56 10° SW 20:49:12 25° W 20:53:30 10° NW visible
9 Apr ? 20:19:12 10° SSW 20:24:03 38° W 20:28:57 10° NNW visible
10 Apr ? 19:53:49 10° S 19:58:59 58° WSW 20:04:13 10° NNW visible
11 Apr ? 19:28:45 10° SSE 19:34:00 89° WSW 19:39:19 10° NNW visible
11 Apr ? 21:11:25 10° SW 21:14:35 16° W 21:17:47 10° NW visible
12 Apr ? 20:45:04 10° SW 20:49:19 25° W 20:53:38 10° NW visible
13 Apr ? 20:19:17 10° SSW 20:24:09 38° W 20:29:03 10° NNW visible
